EKVG

Vagar

Airport
ICAO code
EKVG
Summary
ICAO Region
EUR
ICAO Territory
Location

Sørvágur, Faroe Islands,

Coordinates
62° 3' 49" N , 7° 16' 37" W
KCC
Airport WX
Volcanic Ash
Metar
Observation
EKVG 282150Z AUTO VRB06G18KT 5000 -RA OVC003/// 08/07 Q1004 RMK OVC007/// WIND SKEID VRB17G46KT
Station
Soervaag / Vagar
Date/Time
2023-01-28 21:50:00
Wind speed
06 kts
Lowest cloud amount
overcast
Temperature
8°C
Dew point
7°C
Humidity
93%
QNH
1004 hPa
Weather condition
n/a

Description

Vágar Airport is the only airport in the Faroe Islands, a self-governing territory of Denmark and is located 1 nm east of Sørvágur.

Climatology

Subarctic oceanic climate (Köppen climate classification Cfc) moderated by North Atlantic Current; long, mild, windy winters; short, cool summers.

Runways

Designator Length Width Surface Rops
13/31 1799 30 ASP No/No

Airport map

Aerial View

SKYbrary Partners:

Safety knowledge contributed by: